Tracking 19574 objects as of 16-Feb-2019
HD Live streaming from Space Station
objects crossing your sky now

INTELSAT 804

Track INTELSAT 804 now!
INTELSAT 804 is classified as:


NORAD ID: 25110
Int'l Code: 1997-083A
Perigee: 35,763.1 km
Apogee: 35,841.3 km
Inclination: 10.4 °
Period: 1,436.5 minutes
Semi major axis: 42173 km
RCS: 10.0118 m2 (large)
Launch date: December 21, 1997
Source: International Telecommunications Satellite Organization (ITSO)
Launch site: FRENCH GUIANA (FRGUI)
aabbcc
Your satellite tracking list
Your tracking list is empty




NASA's NSSDC Master Catalog

Two Line Element Set (TLE):
1 25110U 97083A   19045.76275329 -.00000128 +00000-0 +00000-0 0  9998
2 25110 010.4416 036.0057 0009274 291.9882 077.9489 01.00241565077483
Source of the keplerian elements: AFSPC